Location: Unspecified
(0.0000°N, 0.0000°E)
Time: 05:56:03
(UTC+00:00)

Explorer 7 - Pass Details

Date: 03 October 2020
Orbit: 484 x 678 km, 50.3° (Epoch: 28 October)

Event Time Altitude Azimuth Distance (km) Brightness Sun altitude
Rises 20:03:28 0° 220° (SW) 2,564 10.8 -33.6°
Enters shadow 20:05:11 - 222° (SW) 1,871 10.0 -34.0°
Reaches altitude 10° 20:05:37 10° 222° (SW) 1,697 - -34.1°
Maximum altitude 20:09:26 72° 306° (NW) 541 - -35.0°
Drops below altitude 10° 20:13:27 10° 31° (NNE) 1,779 - -36.0°
Sets 20:15:44 0° 34° (NNE) 2,701 - -36.6°
